Mackinac Island, MI

10:16 AM EDT on July 23, 2017 (GMT -0400)
Mackinac Island

Weather History for KMCD - October, 2013

Change the Weather History Date:

Monday, October 28, 2013

  Actual Average Record
Temperature  
Mean Temperature 35 °F -  
Max Temperature 41 °F 46 °F 63 °F (1974)
Min Temperature 29 °F 36 °F 21 °F (1997)
Degree Days  
Heating Degree Days 30    
Moisture  
Dew Point 25 °F    
Average Humidity 70    
Maximum Humidity 88    
Minimum Humidity 53    
Precipitation  
Precipitation 0.00 in - - ()
Sea Level Pressure  
Sea Level Pressure 30.33 in    
Wind  
Wind Speed 11 mph (NNE)    
Max Wind Speed 17 mph    
Max Gust Speed 28 mph    
Visibility 10 miles    
Events      
Averages and records for this station are not official NWS values.
T = Trace of Precipitation, MM = Missing Value Source: NWS Daily Summary

Daily Weather History Graph

Daily Weather History Graph

Search for Another Location

Airport or City:

Trip Planner

Search our weather history database for the weather conditions in past years. The results will help you decide how hot, cold, wet, or windy it might be!

Date:

Astronomy

Oct. 28, 2013 Rise Set
Actual Time 8:13 AM EDT 6:30 PM EDT
Civil Twilight 7:42 AM EDT 7:01 PM EDT
Nautical Twilight 7:07 AM EDT 7:36 PM EDT
Astronomical Twilight 6:33 AM EDT 8:10 PM EDT
Moon 1:47 AM EDT (10/28) 3:28 PM EDT (10/28)
Length of Visible Light 11h 18m
Length of Day
10h 16m
Waning Crescent, 34% of the Moon is Illuminated
Oct 28
Waning Crescent
Nov 3
New
Nov 10
First Quarter
Nov 17
Full
Nov 25
Last Quarter

Hourly Weather History & Observations

Time (EDT) Temp. Windchill Dew Point Humidity Pressure Visibility Wind Dir Wind Speed Gust Speed Precip Events Conditions
12:15 AM 41.0 °F 33.5 °F 35.1 °F 79% 29.98 in 10.0 mi NW 13.8 mph 20.7 mph N/A   Overcast
12:36 AM 40.6 °F 33.8 °F 35.2 °F 81% 29.99 in 10.0 mi NW 11.5 mph 18.4 mph N/A   Overcast
12:56 AM 40.3 °F 33.9 °F 35.2 °F 82% 30.00 in 10.0 mi NW 10.4 mph 19.6 mph N/A   Overcast
1:15 AM 39.6 °F 31.3 °F 35.2 °F 85% 30.02 in 10.0 mi NNW 15.0 mph 21.9 mph N/A   Overcast
1:36 AM 39.6 °F 31.0 °F 34.7 °F 83% 30.03 in 10.0 mi NNW 16.1 mph 20.7 mph N/A   Overcast
1:56 AM 38.8 °F 29.7 °F 34.3 °F 84% 30.05 in 10.0 mi North 17.3 mph 25.3 mph N/A   Overcast
2:15 AM 37.4 °F 30.8 °F 33.4 °F 86% 30.06 in 10.0 mi North 9.2 mph 19.6 mph N/A   Mostly Cloudy
2:36 AM 37.4 °F 30.8 °F 33.8 °F 87% 30.07 in 10.0 mi North 9.2 mph 21.9 mph N/A   Scattered Clouds
2:56 AM 37.0 °F 29.8 °F 33.8 °F 88% 30.09 in 10.0 mi North 10.4 mph 19.6 mph N/A   Mostly Cloudy
3:15 AM 37.4 °F 30.3 °F 33.6 °F 86% 30.11 in 10.0 mi North 10.4 mph 25.3 mph N/A   Mostly Cloudy
3:36 AM 36.9 °F 29.1 °F 32.0 °F 83% 30.13 in 10.0 mi North 11.5 mph 25.3 mph N/A   Scattered Clouds
3:56 AM 36.7 °F 28.0 °F 31.8 °F 83% 30.15 in 10.0 mi North 13.8 mph 25.3 mph N/A   Mostly Cloudy
4:15 AM 35.6 °F 25.5 °F 27.9 °F 73% 30.16 in 10.0 mi North 17.3 mph 27.6 mph N/A   Scattered Clouds
4:36 AM 35.1 °F 24.8 °F 26.4 °F 71% 30.18 in 10.0 mi NNE 17.3 mph 25.3 mph N/A   Clear
4:56 AM 34.3 °F 27.7 °F 27.3 °F 76% 30.19 in 10.0 mi NNE 8.1 mph 18.4 mph N/A   Scattered Clouds
5:15 AM 34.2 °F 26.8 °F 26.2 °F 73% 30.20 in 10.0 mi North 9.2 mph 23.0 mph N/A   Scattered Clouds
5:36 AM 33.3 °F 24.6 °F 26.6 °F 77% 30.21 in 10.0 mi North 11.5 mph 19.6 mph N/A   Scattered Clouds
5:55 AM 32.9 °F 24.1 °F 26.6 °F 78% 30.22 in 10.0 mi NNE 11.5 mph 20.7 mph N/A   Clear
6:16 AM 32.7 °F 22.5 °F 25.5 °F 75% 30.24 in 10.0 mi NNE 15.0 mph 21.9 mph N/A   Clear
6:36 AM 32.2 °F 21.8 °F 25.5 °F 76% 30.26 in 10.0 mi NNE 15.0 mph 19.6 mph N/A   Clear
6:55 AM 32.0 °F 22.1 °F 25.3 °F 76% 30.27 in 10.0 mi NNE 13.8 mph 23.0 mph N/A   Clear
7:16 AM 32.0 °F 21.2 °F 24.6 °F 74% 30.28 in 10.0 mi NNE 16.1 mph 19.6 mph N/A   Clear
7:36 AM 31.5 °F 21.8 °F 24.4 °F 75% 30.29 in 10.0 mi NNE 12.7 mph 19.6 mph N/A   Scattered Clouds
7:55 AM 30.6 °F 20.2 °F 22.8 °F 73% 30.30 in 10.0 mi NNE 13.8 mph 21.9 mph N/A   Scattered Clouds
8:16 AM 30.0 °F 19.1 °F 23.2 °F 76% 30.33 in 10.0 mi NNE 15.0 mph 19.6 mph N/A   Scattered Clouds
8:36 AM 29.5 °F 18.4 °F 22.8 °F 76% 30.35 in 10.0 mi NNE 15.0 mph - N/A   Mostly Cloudy
8:55 AM 30.2 °F 19.3 °F 22.8 °F 74% 30.36 in 10.0 mi NE 15.0 mph 19.6 mph N/A   Mostly Cloudy
9:16 AM 30.0 °F 18.7 °F 21.2 °F 70% 30.37 in 10.0 mi NNE 16.1 mph 21.9 mph N/A   Scattered Clouds
9:36 AM 30.4 °F 20.0 °F 21.6 °F 70% 30.38 in 10.0 mi NNE 13.8 mph 23.0 mph N/A   Scattered Clouds
9:55 AM 30.2 °F 20.2 °F 21.4 °F 70% 30.39 in 10.0 mi NNE 12.7 mph 18.4 mph N/A   Scattered Clouds
10:16 AM 31.5 °F 21.8 °F 21.6 °F 67% 30.39 in 10.0 mi NNE 12.7 mph - N/A   Mostly Cloudy
10:36 AM 32.0 °F 23.0 °F 22.5 °F 68% 30.40 in 10.0 mi NNE 11.5 mph - N/A   Scattered Clouds
10:55 AM 32.0 °F 23.0 °F 21.9 °F 66% 30.41 in 10.0 mi NE 11.5 mph - N/A   Scattered Clouds
11:16 AM 32.7 °F 25.7 °F 21.9 °F 64% 30.41 in 10.0 mi NNE 8.1 mph - N/A   Clear
11:35 AM 33.1 °F 27.7 °F 22.5 °F 65% 30.42 in 10.0 mi NNE 5.8 mph - N/A   Scattered Clouds
11:56 AM 33.3 °F 26.4 °F 22.1 °F 64% 30.43 in 10.0 mi NNE 8.1 mph - N/A   Scattered Clouds
12:16 PM 33.6 °F 26.8 °F 22.3 °F 63% 30.44 in 10.0 mi North 8.1 mph - N/A   Scattered Clouds
12:36 PM 33.4 °F 29.1 °F 21.6 °F 62% 30.44 in 10.0 mi North 4.6 mph - N/A   Scattered Clouds
12:53 PM 34.0 °F - 21.6 °F 60% 30.44 in 10.0 mi Calm Calm - N/A   Scattered Clouds
1:16 PM 34.7 °F 29.6 °F 21.7 °F 59% 30.44 in 10.0 mi North 5.8 mph - N/A   Scattered Clouds
1:35 PM 34.9 °F 30.8 °F 22.1 °F 60% 30.44 in 10.0 mi ENE 4.6 mph - N/A   Clear
1:56 PM 34.9 °F 29.9 °F 21.6 °F 58% 30.44 in 10.0 mi NNE 5.8 mph - N/A   Clear
2:16 PM 35.8 °F 33.0 °F 21.2 °F 55% 30.44 in 10.0 mi NE 3.5 mph - N/A   Clear
2:35 PM 35.8 °F 33.0 °F 21.4 °F 56% 30.43 in 10.0 mi North 3.5 mph - N/A   Clear
2:56 PM 36.9 °F 31.4 °F 22.1 °F 55% 30.43 in 10.0 mi ENE 6.9 mph - N/A   Clear
3:16 PM 36.9 °F 34.3 °F 21.4 °F 54% 30.42 in 10.0 mi NNE 3.5 mph - N/A   Clear
3:35 PM 36.9 °F 31.4 °F 21.6 °F 54% 30.42 in 10.0 mi NE 6.9 mph - N/A   Clear
3:56 PM 37.6 °F 32.3 °F 22.1 °F 54% 30.42 in 10.0 mi NE 6.9 mph - N/A   Clear
4:16 PM 37.6 °F 33.1 °F 21.9 °F 53% 30.42 in 10.0 mi NE 5.8 mph - N/A   Clear
4:35 PM 38.3 °F 35.9 °F 22.5 °F 53% 30.42 in 10.0 mi NNE 3.5 mph - N/A   Clear
4:56 PM 39.0 °F 35.7 °F 23.2 °F 53% 30.42 in 10.0 mi North 4.6 mph - N/A   Clear
5:16 PM 38.1 °F 32.9 °F 22.1 °F 53% 30.42 in 10.0 mi North 6.9 mph - N/A   Clear
5:35 PM 37.2 °F 32.6 °F 22.6 °F 56% 30.42 in 10.0 mi NNE 5.8 mph - N/A   Clear
5:56 PM 36.0 °F 31.1 °F 22.8 °F 59% 30.42 in 10.0 mi North 5.8 mph - N/A   Clear
6:16 PM 34.9 °F 29.0 °F 22.8 °F 61% 30.43 in 10.0 mi NNE 6.9 mph - N/A   Clear
6:35 PM 33.6 °F 27.5 °F 23.0 °F 65% 30.43 in 10.0 mi North 6.9 mph - N/A   Clear
6:56 PM 32.9 °F 26.7 °F 23.0 °F 67% 30.44 in 10.0 mi NNE 6.9 mph - N/A   Clear
7:16 PM 32.4 °F 25.3 °F 23.4 °F 69% 30.45 in 10.0 mi North 8.1 mph - N/A   Clear
7:35 PM 32.0 °F 26.4 °F 23.5 °F 71% 30.45 in 10.0 mi North 5.8 mph - N/A   Clear
7:56 PM 32.0 °F 24.2 °F 23.0 °F 69% 30.45 in 10.0 mi North 9.2 mph - N/A   Clear
8:16 PM 32.0 °F 25.6 °F 23.0 °F 69% 30.46 in 10.0 mi North 6.9 mph - N/A   Clear
8:35 PM 31.6 °F 24.4 °F 23.0 °F 70% 30.45 in 10.0 mi North 8.1 mph - N/A   Clear
8:56 PM 31.6 °F 25.1 °F 22.8 °F 70% 30.45 in 10.0 mi North 6.9 mph - N/A   Clear
9:15 PM 31.6 °F 26.0 °F 22.6 °F 69% 30.45 in 10.0 mi North 5.8 mph - N/A   Clear
9:36 PM 30.7 °F 24.9 °F 23.4 °F 74% 30.45 in 10.0 mi North 5.8 mph - N/A   Clear
9:56 PM 30.7 °F 23.3 °F 23.7 °F 75% 30.45 in 10.0 mi North 8.1 mph - N/A   Clear
10:15 PM 30.9 °F 23.5 °F 23.9 °F 75% 30.46 in 10.0 mi North 8.1 mph - N/A   Clear
10:36 PM 30.4 °F 23.6 °F 23.5 °F 76% 30.46 in 10.0 mi North 6.9 mph - N/A   Clear
10:56 PM 30.0 °F 23.2 °F 23.9 °F 78% 30.46 in 10.0 mi North 6.9 mph - N/A   Clear
11:15 PM 30.0 °F 23.2 °F 23.9 °F 78% 30.46 in 10.0 mi North 6.9 mph - N/A   Clear
11:36 PM 29.8 °F 23.9 °F 23.9 °F 79% 30.46 in 10.0 mi North 5.8 mph - N/A   Clear
11:55 PM 30.0 °F 23.2 °F 23.9 °F 78% 30.46 in 10.0 mi North 6.9 mph - N/A   Clear